Regional Weather Roundup
Issued by NWS

Home | Current Version | Previous Version | Graphics & Text | Print | Product List | Glossary Off
Versions: 1 2 3 4 5 6 7 8 9 10 11 12 13 14 15 16 17 18 19 20 21 22 23 24 25 26 27 28 29 30 31 32 33 34 35 36 37 38 39 40 41 42 43 44 45 46 47 48 49 50

000
ASUS43 KDTX 021410
RWRMI
MICHIGAN HOURLY REGIONAL WEATHER ROUNDUP
NATIONAL WEATHER SERVICE DETROIT/PONTIAC MI
ISSUED BY NATIONAL WEATHER SERVICE GRAND RAPIDS MI
900 AM EST FRI DEC 02 2016

NOTE: "FAIR" INDICATES FEW OR NO CLOUDS BELOW 12,000 FEET WITH NO
SIGNIFICANT WEATHER AND/OR OBSTRUCTION TO VISIBILITY.

MIZ047>049-052>055-059>063-066>070-074>076-081>083-021500-
SOUTHEAST LOWER MICHIGAN

CITY           SKY/WX    TMP DP  RH WIND       PRES   REMARKS
ADRIAN         CLOUDY    37  33  85 W9        30.05R WCI  30
ALMA           CLOUDY    35  32  89 W9        30.02R WCI  28
ANN ARBOR      LGT RAIN  36  34  92 SW10      30.02R FOG     WCI  28
BAD AXE        CLOUDY    35  25  65 W13G20    29.96R WCI  26
DETROIT CITY   CLOUDY    39  35  86 W8        30.01R WCI  33
DETROIT        CLOUDY    39  35  86 W12       30.03R WCI  32
FLINT          CLOUDY    36  31  82 W8        30.01R WCI  30
GROSSE ILE     CLOUDY    38  34  87 W8        30.02R WCI  32
HILLSDALE      CLOUDY    34  32  93 W14G21    30.03R WCI  24
HOWELL         CLOUDY    37  31  81 W8G18     30.00R WCI  30

CITY           SKY/WX    TMP DP  RH WIND       PRES   REMARKS
JACKSON        CLOUDY    34  34 100 W9        30.03R WCI  27
LANSING        CLOUDY    37  29  72 NW12      30.03R WCI  29
MASON          CLOUDY    36  34  94 W6        30.02R WCI  31
MONROE         CLOUDY    38  34  87 W10       30.03R WCI  30
MT. CLEMENS    CLOUDY    37  34  87 W10       29.98R WCI  30
PONTIAC        CLOUDY    37  31  78 W18       29.99R WCI  27
PORT HOPE        N/A     37  27  67 W13G21    29.92R WCI  29
PORT HURON     CLOUDY    36  32  87 NW9       29.98R WCI  29
TRI CITIES     CLOUDY    36  30  79 W9        30.00R WCI  29
YPSILANTI      RAIN      37  34  89 W15G21    30.03R FOG     WCI  28
$$
MIZ043>046-050>051-056>058-064>065-071>073-077>080-021500-
SOUTHWEST LOWER MICHIGAN

CITY           SKY/WX    TMP DP  RH WIND       PRES   REMARKS
BATTLE CREEK   LGT RAIN  36  35  96 W8        30.05R WCI  30
BENTON HARBOR  LGT RAIN  38  33  82 W10       30.08R WCI  31
BIG RAPIDS     CLOUDY    34  30  85 NW6       30.01R WCI  29
COLDWATER      CLOUDY    37  33  85 SW12      30.05R WCI  29
HOLLAND        CLOUDY    39  28  64 NW14G22   30.06R WCI  31
GRAND RAPIDS   MOCLDY    36  26  67 NW10      30.05R WCI  28
KALAMAZOO      LGT RAIN  36  32  85 W8        30.06R FOG     WCI  30
MARSHALL       LGT SNOW  33  32  98 W5        30.04R WCI  28
MOUNT PLEASANT CLOUDY    34  31  90 W6        30.00R WCI  29
MUSKEGON       CLOUDY    38  27  64 NW9       30.06R WCI  31
STURGIS        CLOUDY    36  33  88 W6        30.06R WCI  31
$$
MIZ016>042-021500-
NORTHERN LOWER MICHIGAN

CITY           SKY/WX    TMP DP  RH WIND       PRES   REMARKS
ALPENA         FLURRIES  35  30  82 W9G18     29.90R WCI  28
BEAVER ISLAND  CLOUDY    35  32  88 W14       29.97R WCI  26
BELLAIRE       LGT SNOW  35  32  90 W8        29.98R WCI  28
CADILLAC       CLOUDY    31  28  90 W9        29.97R WCI  23
CHARLEVOIX     CLOUDY    36  32  85 NW17G24   29.99R WCI  26
GAYLORD        LGT SNOW  33  29  85 W9        29.92R FOG     WCI  25
HOUGHTON LAKE  CLOUDY    32  27  81 W14       29.96R WCI  22
MANISTEE       CLOUDY    34  27  75 NW10      30.04R WCI  26
OSCODA         CLOUDY    36  28  72 MISG      29.92R
PELLSTON       LGT RAIN  35  31  85 NW18      29.94R WCI  24
TRAVERSE CITY  CLOUDY    35  28  75 W10       29.99R WCI  27
LUDINGTON      CLOUDY    34  26  71 NW10G16   30.05R WCI  26
$$
MIZ007>008-015-021500-
EASTERN UPPER MICHIGAN

CITY           SKY/WX    TMP DP  RH WIND       PRES   REMARKS
KINROSS        LGT SNOW  32  32 100 W9        29.89R FOG     WCI  24
MACKINAC ISLAN CLOUDY    34  33  95 NW14G22   29.91R WCI  25
NEWBERRY       LGT SNOW  33  32  96 NW8       29.92R WCI  26
S. S. MARIE    LGT RAIN  36  34  92 NW8       29.88R WCI  30
$$
MIZ004>006-011>014-085-021500-
CENTRAL UPPER MICHIGAN

CITY           SKY/WX    TMP DP  RH WIND       PRES   REMARKS
MANISTIQUE     CLOUDY    32  30  93 W9        29.97R WCI  24
ESCANABA       CLOUDY    32  25  75 W12       30.03R WCI  23
MENOMINEE      CLOUDY    32  24  72 NW5       30.07R WCI  27
SAWYER-GWINN   CLOUDY    30  27  86 NW12      30.00R WCI  21
$$
MIZ001>003-009>011-084-021500-
WESTERN UPPER MICHIGAN

CITY           SKY/WX    TMP DP  RH WIND       PRES   REMARKS
IRON MOUNTAIN  CLOUDY    30  23  75 NW13      30.02R WCI  20
HOUGHTON       LGT SNOW  31  27  85 NW12      30.03R FOG     WCI  22
COPPER HARBOR    N/A     34  31  88 N18       30.02R WCI  23
IRONWOOD       CLOUDY    27  25  92 W9        30.10R WCI  18
$$

ABBREVIATIONS USED IN REMARKS
   TC - TEMPERATURE IN CELSIUS
  WCI - WIND CHILL INDEX
   HX - HEAT INDEX
  VSB - VISIBILITY





USA.gov is the U.S. government's official web portal to all federal, state and local government web resources and services.